Year,Month,Day,Hour,Minute,Value (Times are PST for windgust in km/hr)
2020,02,22,00,00,1.60
2020,02,22,00,01,4.80
2020,02,22,00,02,3.20
2020,02,22,00,03,3.20
2020,02,22,00,04,3.20
2020,02,22,00,05,6.40
2020,02,22,00,06,4.80
2020,02,22,00,07,6.40
2020,02,22,00,08,6.40
2020,02,22,00,09,1.60
2020,02,22,00,10,4.80
2020,02,22,00,11,6.40
2020,02,22,00,12,3.20
2020,02,22,00,13,1.60
2020,02,22,00,14,3.20
2020,02,22,00,15,3.20
2020,02,22,00,16,4.80
2020,02,22,00,17,3.20
2020,02,22,00,18,4.80
2020,02,22,00,19,4.80
2020,02,22,00,20,3.20
2020,02,22,00,21,1.60
2020,02,22,00,22,3.20
2020,02,22,00,23,1.60
2020,02,22,00,25,1.60
2020,02,22,00,26,1.60
2020,02,22,00,27,1.60
2020,02,22,00,29,1.60
2020,02,22,00,30,3.20
2020,02,22,00,31,3.20
2020,02,22,00,32,1.60
2020,02,22,00,33,3.20
2020,02,22,00,34,3.20
2020,02,22,00,35,1.60
2020,02,22,00,36,1.60
2020,02,22,00,37,1.60
2020,02,22,00,38,1.60
2020,02,22,00,39,1.60
2020,02,22,00,40,1.60
2020,02,22,00,41,1.60
2020,02,22,00,42,3.20
2020,02,22,00,43,3.20
2020,02,22,00,44,3.20
2020,02,22,00,45,1.60
2020,02,22,00,46,3.20
2020,02,22,00,47,3.20
2020,02,22,00,48,4.80
2020,02,22,00,49,4.80
2020,02,22,00,50,4.80
2020,02,22,00,51,3.20
2020,02,22,00,52,3.20
2020,02,22,00,53,3.20
2020,02,22,00,54,1.60
2020,02,22,00,55,3.20
2020,02,22,00,56,3.20
2020,02,22,00,57,1.60
2020,02,22,00,59,1.60
2020,02,22,01,00,1.60
2020,02,22,01,01,1.60
2020,02,22,01,02,1.60
2020,02,22,01,03,1.60
2020,02,22,01,04,1.60
2020,02,22,01,05,1.60
2020,02,22,01,06,1.60
2020,02,22,01,07,3.20
2020,02,22,01,08,1.60
2020,02,22,01,10,1.60
2020,02,22,01,17,1.60
2020,02,22,01,35,1.60
2020,02,22,01,36,1.60
2020,02,22,01,37,1.60
2020,02,22,01,38,1.60
2020,02,22,01,39,1.60
2020,02,22,01,45,1.60
2020,02,22,01,46,1.60
2020,02,22,01,54,1.60
2020,02,22,01,55,1.60
2020,02,22,01,56,1.60
2020,02,22,01,57,1.60
2020,02,22,01,58,1.60
2020,02,22,01,59,1.60
2020,02,22,02,00,1.60
2020,02,22,02,01,1.60
2020,02,22,02,02,1.60
2020,02,22,02,03,1.60
2020,02,22,02,04,1.60
2020,02,22,02,05,1.60
2020,02,22,02,07,1.60
2020,02,22,02,08,1.60
2020,02,22,02,09,1.60
2020,02,22,02,11,1.60
2020,02,22,02,12,3.20
2020,02,22,02,13,1.60
2020,02,22,02,14,1.60
2020,02,22,02,20,1.60
2020,02,22,02,21,1.60
2020,02,22,02,22,3.20
2020,02,22,02,23,3.20
2020,02,22,02,24,3.20
2020,02,22,02,25,3.20
2020,02,22,02,26,3.20
2020,02,22,02,27,4.80
2020,02,22,02,28,3.20
2020,02,22,02,29,4.80
2020,02,22,02,30,3.20
2020,02,22,02,31,3.20
2020,02,22,02,32,4.80
2020,02,22,02,33,3.20
2020,02,22,02,34,1.60
2020,02,22,02,35,1.60
2020,02,22,02,36,3.20
2020,02,22,02,37,6.40
2020,02,22,02,38,3.20
2020,02,22,02,39,3.20
2020,02,22,02,40,3.20
2020,02,22,02,41,4.80
2020,02,22,02,42,3.20
2020,02,22,02,43,3.20
2020,02,22,02,44,4.80
2020,02,22,02,45,4.80
2020,02,22,02,46,4.80
2020,02,22,02,47,4.80
2020,02,22,02,48,6.40
2020,02,22,02,49,6.40
2020,02,22,02,50,8.10
2020,02,22,02,51,6.40
2020,02,22,02,52,4.80
2020,02,22,02,53,8.10
2020,02,22,02,54,4.80
2020,02,22,02,55,4.80
2020,02,22,02,56,6.40
2020,02,22,02,57,14.50
2020,02,22,02,58,14.50
2020,02,22,02,59,8.10
2020,02,22,03,00,6.40
2020,02,22,03,01,6.40
2020,02,22,03,02,4.80
2020,02,22,03,03,6.40
2020,02,22,03,04,8.10
2020,02,22,03,05,8.10
2020,02,22,03,06,8.10
2020,02,22,03,07,4.80
2020,02,22,03,08,6.40
2020,02,22,03,09,9.60
2020,02,22,03,10,8.10
2020,02,22,03,11,11.30
2020,02,22,03,12,11.30
2020,02,22,03,13,4.80
2020,02,22,03,14,6.40
2020,02,22,03,15,4.80
2020,02,22,03,16,6.40
2020,02,22,03,17,8.10
2020,02,22,03,18,6.40
2020,02,22,03,19,4.80
2020,02,22,03,20,6.40
2020,02,22,03,21,4.80
2020,02,22,03,22,4.80
2020,02,22,03,23,4.80
2020,02,22,03,24,6.40
2020,02,22,03,25,6.40
2020,02,22,03,26,4.80
2020,02,22,03,27,6.40
2020,02,22,03,28,4.80
2020,02,22,03,29,3.20
2020,02,22,03,30,3.20
2020,02,22,03,31,3.20
2020,02,22,03,32,3.20
2020,02,22,03,33,3.20
2020,02,22,03,34,3.20
2020,02,22,03,35,4.80
2020,02,22,03,36,3.20
2020,02,22,03,37,3.20
2020,02,22,03,38,1.60
2020,02,22,03,39,4.80
2020,02,22,03,40,3.20
2020,02,22,03,41,3.20
2020,02,22,03,42,3.20
2020,02,22,03,43,1.60
2020,02,22,03,44,1.60
2020,02,22,03,46,1.60
2020,02,22,03,47,4.80
2020,02,22,03,48,4.80
2020,02,22,03,49,3.20
2020,02,22,03,50,4.80
2020,02,22,03,51,3.20
2020,02,22,03,52,4.80
2020,02,22,03,53,3.20
2020,02,22,03,54,4.80
2020,02,22,03,55,4.80
2020,02,22,03,56,4.80
2020,02,22,03,57,4.80
2020,02,22,03,58,3.20
2020,02,22,03,59,4.80
2020,02,22,04,00,6.40
2020,02,22,04,01,6.40
2020,02,22,04,02,4.80
2020,02,22,04,03,6.40
2020,02,22,04,04,4.80
2020,02,22,04,05,9.60
2020,02,22,04,06,4.80
2020,02,22,04,07,4.80
2020,02,22,04,08,6.40
2020,02,22,04,09,9.60
2020,02,22,04,10,6.40
2020,02,22,04,11,6.40
2020,02,22,04,12,6.40
2020,02,22,04,13,11.30
2020,02,22,04,14,12.90
2020,02,22,04,15,11.30
2020,02,22,04,16,6.40
2020,02,22,04,17,12.90
2020,02,22,04,18,3.20
2020,02,22,04,19,12.90
2020,02,22,04,20,6.40
2020,02,22,04,21,8.10
2020,02,22,04,22,4.80
2020,02,22,04,23,4.80
2020,02,22,04,24,3.20
2020,02,22,04,25,8.10
2020,02,22,04,26,4.80
2020,02,22,04,27,9.60
2020,02,22,04,28,6.40
2020,02,22,04,29,6.40
2020,02,22,04,30,6.40
2020,02,22,04,31,6.40
2020,02,22,04,32,6.40
2020,02,22,04,33,3.20
2020,02,22,04,34,3.20
2020,02,22,04,35,1.60
2020,02,22,04,36,3.20
2020,02,22,04,37,4.80
2020,02,22,04,38,6.40
2020,02,22,04,39,4.80
2020,02,22,04,40,3.20
2020,02,22,04,41,4.80
2020,02,22,04,42,4.80
2020,02,22,04,43,1.60
2020,02,22,04,44,3.20
2020,02,22,04,45,4.80
2020,02,22,04,46,3.20
2020,02,22,04,47,3.20
2020,02,22,04,48,3.20
2020,02,22,04,49,3.20
2020,02,22,04,50,4.80
2020,02,22,04,51,3.20
2020,02,22,04,52,3.20
2020,02,22,04,53,3.20
2020,02,22,04,54,3.20
2020,02,22,04,55,1.60
2020,02,22,04,57,1.60
2020,02,22,04,58,1.60
2020,02,22,05,07,3.20
2020,02,22,05,08,3.20
2020,02,22,05,09,1.60
2020,02,22,05,10,1.60
2020,02,22,05,11,1.60
2020,02,22,05,12,4.80
2020,02,22,05,13,4.80
2020,02,22,05,14,1.60
2020,02,22,05,15,1.60
2020,02,22,05,16,3.20
2020,02,22,05,17,3.20
2020,02,22,05,21,1.60
2020,02,22,05,22,3.20
2020,02,22,05,23,1.60
2020,02,22,05,24,3.20
2020,02,22,05,25,3.20
2020,02,22,05,26,3.20
2020,02,22,05,27,3.20
2020,02,22,05,28,3.20
2020,02,22,05,29,1.60
2020,02,22,05,30,1.60
2020,02,22,05,34,1.60
2020,02,22,05,35,3.20
2020,02,22,05,36,3.20
2020,02,22,05,37,1.60
2020,02,22,05,38,3.20
2020,02,22,05,39,3.20
2020,02,22,05,40,1.60
2020,02,22,05,41,1.60
2020,02,22,05,42,3.20
2020,02,22,05,43,3.20
2020,02,22,05,44,3.20
2020,02,22,05,45,1.60
2020,02,22,05,46,3.20
2020,02,22,05,47,1.60
2020,02,22,05,48,1.60
2020,02,22,05,49,1.60
2020,02,22,05,52,1.60
2020,02,22,05,53,1.60
2020,02,22,05,54,1.60
2020,02,22,05,55,3.20
2020,02,22,05,56,3.20
2020,02,22,05,57,3.20
2020,02,22,05,58,1.60
2020,02,22,05,59,1.60
2020,02,22,06,00,1.60
2020,02,22,06,01,1.60
2020,02,22,06,02,3.20
2020,02,22,06,03,3.20
2020,02,22,06,04,3.20
2020,02,22,06,05,3.20
2020,02,22,06,06,3.20
2020,02,22,06,07,3.20
2020,02,22,06,08,3.20
2020,02,22,06,09,1.60
2020,02,22,06,10,1.60
2020,02,22,06,11,1.60
2020,02,22,06,12,1.60
2020,02,22,06,13,3.20
2020,02,22,06,14,6.40
2020,02,22,06,15,6.40
2020,02,22,06,16,1.60
2020,02,22,06,17,1.60
2020,02,22,06,18,1.60
2020,02,22,06,19,3.20
2020,02,22,06,20,1.60
2020,02,22,06,21,3.20
2020,02,22,06,22,3.20
2020,02,22,06,23,1.60
2020,02,22,06,24,3.20
2020,02,22,06,27,1.60
2020,02,22,06,28,1.60
2020,02,22,06,29,1.60
2020,02,22,06,32,3.20
2020,02,22,06,33,3.20
2020,02,22,06,34,1.60
2020,02,22,06,35,3.20
2020,02,22,06,36,3.20
2020,02,22,06,37,1.60
2020,02,22,06,38,1.60
2020,02,22,06,41,1.60
2020,02,22,06,42,1.60
2020,02,22,06,43,1.60
2020,02,22,06,44,1.60
2020,02,22,06,45,1.60
2020,02,22,06,46,1.60
2020,02,22,06,47,1.60
2020,02,22,06,48,1.60
2020,02,22,06,52,1.60
2020,02,22,06,53,1.60
2020,02,22,06,54,1.60
2020,02,22,06,55,1.60
2020,02,22,06,56,1.60
2020,02,22,06,57,1.60
2020,02,22,06,58,1.60
2020,02,22,06,59,3.20
2020,02,22,07,00,1.60
2020,02,22,07,01,1.60
2020,02,22,07,02,1.60
2020,02,22,07,03,3.20
2020,02,22,07,04,3.20
2020,02,22,07,05,3.20
2020,02,22,07,06,3.20
2020,02,22,07,07,3.20
2020,02,22,07,08,3.20
2020,02,22,07,09,1.60
2020,02,22,07,10,1.60
2020,02,22,07,11,3.20
2020,02,22,07,12,3.20
2020,02,22,07,13,1.60
2020,02,22,07,14,1.60
2020,02,22,07,15,3.20
2020,02,22,07,16,4.80
2020,02,22,07,17,3.20
2020,02,22,07,18,1.60
2020,02,22,07,19,3.20
2020,02,22,07,20,3.20
2020,02,22,07,21,3.20
2020,02,22,07,22,1.60
2020,02,22,07,23,1.60
2020,02,22,07,24,1.60
2020,02,22,07,25,1.60
2020,02,22,07,26,1.60
2020,02,22,07,27,3.20
2020,02,22,07,28,1.60
2020,02,22,07,29,1.60
2020,02,22,07,30,3.20
2020,02,22,07,31,1.60
2020,02,22,07,32,1.60
2020,02,22,07,33,1.60
2020,02,22,07,37,1.60
2020,02,22,07,39,1.60
2020,02,22,07,40,1.60
2020,02,22,07,41,1.60
2020,02,22,07,42,1.60
2020,02,22,07,43,3.20
2020,02,22,07,44,3.20
2020,02,22,07,45,3.20
2020,02,22,07,46,4.80
2020,02,22,07,47,3.20
2020,02,22,07,48,3.20
2020,02,22,07,49,3.20
2020,02,22,07,50,3.20
2020,02,22,07,51,3.20
2020,02,22,07,52,3.20
2020,02,22,07,53,1.60
2020,02,22,07,54,3.20
2020,02,22,07,55,1.60
2020,02,22,07,56,3.20
2020,02,22,07,57,3.20
2020,02,22,07,58,3.20
2020,02,22,07,59,1.60
2020,02,22,08,00,1.60
2020,02,22,08,01,1.60
2020,02,22,08,02,1.60
2020,02,22,08,03,1.60
2020,02,22,08,04,1.60
2020,02,22,08,05,1.60
2020,02,22,08,06,1.60
2020,02,22,08,07,1.60
2020,02,22,08,08,1.60
2020,02,22,08,09,1.60
2020,02,22,08,10,1.60
2020,02,22,08,11,3.20
2020,02,22,08,12,1.60
2020,02,22,08,13,1.60
2020,02,22,08,14,1.60
2020,02,22,08,15,3.20
2020,02,22,08,16,3.20
2020,02,22,08,17,1.60
2020,02,22,08,18,3.20
2020,02,22,08,19,1.60
2020,02,22,08,20,3.20
2020,02,22,08,21,3.20
2020,02,22,08,22,1.60
2020,02,22,08,23,3.20
2020,02,22,08,24,3.20
2020,02,22,08,25,1.60
2020,02,22,08,26,1.60
2020,02,22,08,28,1.60
2020,02,22,08,29,1.60
2020,02,22,08,30,1.60
2020,02,22,08,31,3.20
2020,02,22,08,32,3.20
2020,02,22,08,33,1.60
2020,02,22,08,34,3.20
2020,02,22,08,35,3.20
2020,02,22,08,36,4.80
2020,02,22,08,37,4.80
2020,02,22,08,38,3.20
2020,02,22,08,39,3.20
2020,02,22,08,40,3.20
2020,02,22,08,41,3.20
2020,02,22,08,42,3.20
2020,02,22,08,43,4.80
2020,02,22,08,44,6.40
2020,02,22,08,45,6.40
2020,02,22,08,46,12.90
2020,02,22,08,47,6.40
2020,02,22,08,48,6.40
2020,02,22,08,49,4.80
2020,02,22,08,50,9.60
2020,02,22,08,51,9.60
2020,02,22,08,52,6.40
2020,02,22,08,53,9.60
2020,02,22,08,54,9.60
2020,02,22,08,55,9.60
2020,02,22,08,56,4.80
2020,02,22,08,57,6.40
2020,02,22,08,58,6.40
2020,02,22,08,59,4.80
2020,02,22,09,00,6.40
2020,02,22,09,01,3.20
2020,02,22,09,02,4.80
2020,02,22,09,03,4.80
2020,02,22,09,04,12.90
2020,02,22,09,05,12.90
2020,02,22,09,06,4.80
2020,02,22,09,07,9.60
2020,02,22,09,08,9.60
2020,02,22,09,09,6.40
2020,02,22,09,10,3.20
2020,02,22,09,11,4.80
2020,02,22,09,12,4.80
2020,02,22,09,13,3.20
2020,02,22,09,14,4.80
2020,02,22,09,15,3.20
2020,02,22,09,16,1.60
2020,02,22,09,17,3.20
2020,02,22,09,18,3.20
2020,02,22,09,19,3.20
2020,02,22,09,20,3.20
2020,02,22,09,21,3.20
2020,02,22,09,22,6.40
2020,02,22,09,23,9.60
2020,02,22,09,24,6.40
2020,02,22,09,25,3.20
2020,02,22,09,26,3.20
2020,02,22,09,27,4.80
2020,02,22,09,28,6.40
2020,02,22,09,29,4.80
2020,02,22,09,30,6.40
2020,02,22,09,31,4.80
2020,02,22,09,32,3.20
2020,02,22,09,33,3.20
2020,02,22,09,34,4.80
2020,02,22,09,35,6.40
2020,02,22,09,36,6.40
2020,02,22,09,37,3.20
2020,02,22,09,38,6.40
2020,02,22,09,39,4.80
2020,02,22,09,40,4.80
2020,02,22,09,41,6.40
2020,02,22,09,42,4.80
2020,02,22,09,43,6.40
2020,02,22,09,44,6.40
2020,02,22,09,45,4.80
2020,02,22,09,46,6.40
2020,02,22,09,47,8.10
2020,02,22,09,48,4.80
2020,02,22,09,49,4.80
2020,02,22,09,50,4.80
2020,02,22,09,51,4.80
2020,02,22,09,52,3.20
2020,02,22,09,53,3.20
2020,02,22,09,54,6.40
2020,02,22,09,55,6.40
2020,02,22,09,56,4.80
2020,02,22,09,57,6.40
2020,02,22,09,58,6.40
2020,02,22,09,59,4.80
2020,02,22,10,00,4.80
2020,02,22,10,01,4.80
2020,02,22,10,02,8.10
2020,02,22,10,03,6.40
2020,02,22,10,04,6.40
2020,02,22,10,05,4.80
2020,02,22,10,06,4.80
2020,02,22,10,07,6.40
2020,02,22,10,08,8.10
2020,02,22,10,09,8.10
2020,02,22,10,10,4.80
2020,02,22,10,11,6.40
2020,02,22,10,12,6.40
2020,02,22,10,13,8.10
2020,02,22,10,14,8.10
2020,02,22,10,15,8.10
2020,02,22,10,16,6.40
2020,02,22,10,17,8.10
2020,02,22,10,18,16.10
2020,02,22,10,19,12.90
2020,02,22,10,20,6.40
2020,02,22,10,21,12.90
2020,02,22,10,22,6.40
2020,02,22,10,23,11.30
2020,02,22,10,24,12.90
2020,02,22,10,25,8.10
2020,02,22,10,26,8.10
2020,02,22,10,27,6.40
2020,02,22,10,28,14.50
2020,02,22,10,29,14.50
2020,02,22,10,30,12.90
2020,02,22,10,31,9.60
2020,02,22,10,32,9.60
2020,02,22,10,33,14.50
2020,02,22,10,34,12.90
2020,02,22,10,35,6.40
2020,02,22,10,36,9.60
2020,02,22,10,37,11.30
2020,02,22,10,38,8.10
2020,02,22,10,39,8.10
2020,02,22,10,40,6.40
2020,02,22,10,41,8.10
2020,02,22,10,42,12.90
2020,02,22,10,43,14.50
2020,02,22,10,44,9.60
2020,02,22,10,45,4.80
2020,02,22,10,46,6.40
2020,02,22,10,47,6.40
2020,02,22,10,48,8.10
2020,02,22,10,49,9.60
2020,02,22,10,50,8.10
2020,02,22,10,51,14.50
2020,02,22,10,52,12.90
2020,02,22,10,53,6.40
2020,02,22,10,54,12.90
2020,02,22,10,55,12.90
2020,02,22,10,56,9.60
2020,02,22,10,57,11.30
2020,02,22,10,58,12.90
2020,02,22,10,59,14.50
2020,02,22,11,00,17.70
2020,02,22,11,01,12.90
2020,02,22,11,02,9.60
2020,02,22,11,03,14.50
2020,02,22,11,04,11.30
2020,02,22,11,05,11.30
2020,02,22,11,06,8.10
2020,02,22,11,07,6.40
2020,02,22,11,08,9.60
2020,02,22,11,09,12.90
2020,02,22,11,10,6.40
2020,02,22,11,11,9.60
2020,02,22,11,12,4.80
2020,02,22,11,13,16.10
2020,02,22,11,14,12.90
2020,02,22,11,15,8.10
2020,02,22,11,16,6.40
2020,02,22,11,17,14.50
2020,02,22,11,18,14.50
2020,02,22,11,19,8.10
2020,02,22,11,20,4.80
2020,02,22,11,21,6.40
2020,02,22,11,22,4.80
2020,02,22,11,23,14.50
2020,02,22,11,24,8.10
2020,02,22,11,25,9.60
2020,02,22,11,26,9.60
2020,02,22,11,27,6.40
2020,02,22,11,28,4.80
2020,02,22,11,29,6.40
2020,02,22,11,30,4.80
2020,02,22,11,31,4.80
2020,02,22,11,32,4.80
2020,02,22,11,33,4.80
2020,02,22,11,34,9.60
2020,02,22,11,35,9.60
2020,02,22,11,36,9.60
2020,02,22,11,37,14.50
2020,02,22,11,38,8.10
2020,02,22,11,39,12.90
2020,02,22,11,40,8.10
2020,02,22,11,41,14.50
2020,02,22,11,42,12.90
2020,02,22,11,43,6.40
2020,02,22,11,44,6.40
2020,02,22,11,45,4.80
2020,02,22,11,46,14.50
2020,02,22,11,47,14.50
2020,02,22,11,48,12.90
2020,02,22,11,49,8.10
2020,02,22,11,50,9.60
2020,02,22,11,51,8.10
2020,02,22,11,52,6.40
2020,02,22,11,53,9.60
2020,02,22,11,54,6.40
2020,02,22,11,55,6.40
2020,02,22,11,56,9.60
2020,02,22,11,57,8.10
2020,02,22,11,58,4.80
2020,02,22,11,59,6.40
2020,02,22,12,00,4.80
2020,02,22,12,01,4.80
2020,02,22,12,02,11.30
2020,02,22,12,03,8.10
2020,02,22,12,04,8.10
2020,02,22,12,05,4.80
2020,02,22,12,06,6.40
2020,02,22,12,07,8.10
2020,02,22,12,08,11.30
2020,02,22,12,09,6.40
2020,02,22,12,10,6.40
2020,02,22,12,11,8.10
2020,02,22,12,12,9.60
2020,02,22,12,13,8.10
2020,02,22,12,14,6.40
2020,02,22,12,15,8.10
2020,02,22,12,16,9.60
2020,02,22,12,17,8.10
2020,02,22,12,18,6.40
2020,02,22,12,19,9.60
2020,02,22,12,20,8.10
2020,02,22,12,21,8.10
2020,02,22,12,22,4.80
2020,02,22,12,23,8.10
2020,02,22,12,24,8.10
2020,02,22,12,25,6.40
2020,02,22,12,26,4.80
2020,02,22,12,27,4.80
2020,02,22,12,28,6.40
2020,02,22,12,29,4.80
2020,02,22,12,30,4.80
2020,02,22,12,31,8.10
2020,02,22,12,32,8.10
2020,02,22,12,33,4.80
2020,02,22,12,34,8.10
2020,02,22,12,35,6.40
2020,02,22,12,36,8.10
2020,02,22,12,37,8.10
2020,02,22,12,38,4.80
2020,02,22,12,39,9.60
2020,02,22,12,40,6.40
2020,02,22,12,41,6.40
2020,02,22,12,42,6.40
2020,02,22,12,43,11.30
2020,02,22,12,44,4.80
2020,02,22,12,45,4.80
2020,02,22,12,46,6.40
2020,02,22,12,47,8.10
2020,02,22,12,48,4.80
2020,02,22,12,49,9.60
2020,02,22,12,50,12.90
2020,02,22,12,51,6.40
2020,02,22,12,52,4.80
2020,02,22,12,53,6.40
2020,02,22,12,54,11.30
2020,02,22,12,55,9.60
2020,02,22,12,56,11.30
2020,02,22,12,57,9.60
2020,02,22,12,58,3.20
2020,02,22,12,59,4.80
2020,02,22,13,00,4.80
2020,02,22,13,01,6.40
2020,02,22,13,02,16.10
2020,02,22,13,03,8.10
2020,02,22,13,04,6.40
2020,02,22,13,05,8.10
2020,02,22,13,06,9.60
2020,02,22,13,07,9.60
2020,02,22,13,08,9.60
2020,02,22,13,09,9.60
2020,02,22,13,10,9.60
2020,02,22,13,11,14.50
2020,02,22,13,12,16.10
2020,02,22,13,13,12.90
2020,02,22,13,14,12.90
2020,02,22,13,15,6.40
2020,02,22,13,16,8.10
2020,02,22,13,17,8.10
2020,02,22,13,18,9.60
2020,02,22,13,19,9.60
2020,02,22,13,20,9.60
2020,02,22,13,21,9.60
2020,02,22,13,22,16.10
2020,02,22,13,23,9.60
2020,02,22,13,24,6.40
2020,02,22,13,25,8.10
2020,02,22,13,26,9.60
2020,02,22,13,27,8.10
2020,02,22,13,28,9.60
2020,02,22,13,29,16.10
2020,02,22,13,30,17.70
2020,02,22,13,31,11.30
2020,02,22,13,32,11.30
2020,02,22,13,33,8.10
2020,02,22,13,34,3.20
2020,02,22,13,35,4.80
2020,02,22,13,36,11.30
2020,02,22,13,37,6.40
2020,02,22,13,38,4.80
2020,02,22,13,39,12.90
2020,02,22,13,40,11.30
2020,02,22,13,41,9.60
2020,02,22,13,42,8.10
2020,02,22,13,43,11.30
2020,02,22,13,44,4.80
2020,02,22,13,45,8.10
2020,02,22,13,46,8.10
2020,02,22,13,47,9.60
2020,02,22,13,48,8.10
2020,02,22,13,49,8.10
2020,02,22,13,50,12.90
2020,02,22,13,51,11.30
2020,02,22,13,52,9.60
2020,02,22,13,53,9.60
2020,02,22,13,54,12.90
2020,02,22,13,55,9.60
2020,02,22,13,56,8.10
2020,02,22,13,57,8.10
2020,02,22,13,58,14.50
2020,02,22,13,59,9.60
2020,02,22,14,00,6.40
2020,02,22,14,01,11.30
2020,02,22,14,02,11.30
2020,02,22,14,03,8.10
2020,02,22,14,04,4.80
2020,02,22,14,05,9.60
2020,02,22,14,06,8.10
2020,02,22,14,07,9.60
2020,02,22,14,08,9.60
2020,02,22,14,09,12.90
2020,02,22,14,10,8.10
2020,02,22,14,11,6.40
2020,02,22,14,12,8.10
2020,02,22,14,13,9.60
2020,02,22,14,14,8.10
2020,02,22,14,15,8.10
2020,02,22,14,16,12.90
2020,02,22,14,17,8.10
2020,02,22,14,18,11.30
2020,02,22,14,19,9.60
2020,02,22,14,20,8.10
2020,02,22,14,21,6.40
2020,02,22,14,22,9.60
2020,02,22,14,23,8.10
2020,02,22,14,24,9.60
2020,02,22,14,25,4.80
2020,02,22,14,26,12.90
2020,02,22,14,27,9.60
2020,02,22,14,28,12.90
2020,02,22,14,29,6.40
2020,02,22,14,30,6.40
2020,02,22,14,31,4.80
2020,02,22,14,32,4.80
2020,02,22,14,33,9.60
2020,02,22,14,34,3.20
2020,02,22,14,35,12.90
2020,02,22,14,36,14.50
2020,02,22,14,37,11.30
2020,02,22,14,38,12.90
2020,02,22,14,39,6.40
2020,02,22,14,40,11.30
2020,02,22,14,41,4.80
2020,02,22,14,42,12.90
2020,02,22,14,43,11.30
2020,02,22,14,44,6.40
2020,02,22,14,45,9.60
2020,02,22,14,46,8.10
2020,02,22,14,47,4.80
2020,02,22,14,48,9.60
2020,02,22,14,49,8.10
2020,02,22,14,50,6.40
2020,02,22,14,51,9.60
2020,02,22,14,52,9.60
2020,02,22,14,53,11.30
2020,02,22,14,54,9.60
2020,02,22,14,55,8.10
2020,02,22,14,56,4.80
2020,02,22,14,57,8.10
2020,02,22,14,58,6.40
2020,02,22,14,59,9.60
2020,02,22,15,00,11.30
2020,02,22,15,01,8.10
2020,02,22,15,02,6.40
2020,02,22,15,03,8.10
2020,02,22,15,04,8.10
2020,02,22,15,05,4.80
2020,02,22,15,06,9.60
2020,02,22,15,07,12.90
2020,02,22,15,08,9.60
2020,02,22,15,09,9.60
2020,02,22,15,10,11.30
2020,02,22,15,11,11.30
2020,02,22,15,12,9.60
2020,02,22,15,13,4.80
2020,02,22,15,14,12.90
2020,02,22,15,15,9.60
2020,02,22,15,16,6.40
2020,02,22,15,17,6.40
2020,02,22,15,18,8.10
2020,02,22,15,19,9.60
2020,02,22,15,20,4.80
2020,02,22,15,21,9.60
2020,02,22,15,22,9.60
2020,02,22,15,23,8.10
2020,02,22,15,24,6.40
2020,02,22,15,25,6.40
2020,02,22,15,26,11.30
2020,02,22,15,27,8.10
2020,02,22,15,28,8.10
2020,02,22,15,29,8.10
2020,02,22,15,30,9.60
2020,02,22,15,31,4.80
2020,02,22,15,32,11.30
2020,02,22,15,33,8.10
2020,02,22,15,34,6.40
2020,02,22,15,35,6.40
2020,02,22,15,36,4.80
2020,02,22,15,37,4.80
2020,02,22,15,38,9.60
2020,02,22,15,39,8.10
2020,02,22,15,40,9.60
2020,02,22,15,41,8.10
2020,02,22,15,42,9.60
2020,02,22,15,43,6.40
2020,02,22,15,44,4.80
2020,02,22,15,45,4.80
2020,02,22,15,46,3.20
2020,02,22,15,47,8.10
2020,02,22,15,48,8.10
2020,02,22,15,49,8.10
2020,02,22,15,50,4.80
2020,02,22,15,51,6.40
2020,02,22,15,52,6.40
2020,02,22,15,53,3.20
2020,02,22,15,54,6.40
2020,02,22,15,55,8.10
2020,02,22,15,56,6.40
2020,02,22,15,57,14.50
2020,02,22,15,58,9.60
2020,02,22,15,59,4.80
2020,02,22,16,00,11.30
2020,02,22,16,01,8.10
2020,02,22,16,02,6.40
2020,02,22,16,03,6.40
2020,02,22,16,04,8.10
2020,02,22,16,05,4.80
2020,02,22,16,06,3.20
2020,02,22,16,07,3.20
2020,02,22,16,08,8.10
2020,02,22,16,09,4.80
2020,02,22,16,10,4.80
2020,02,22,16,11,11.30
2020,02,22,16,12,9.60
2020,02,22,16,13,8.10
2020,02,22,16,14,8.10
2020,02,22,16,15,8.10
2020,02,22,16,16,8.10
2020,02,22,16,17,8.10
2020,02,22,16,18,6.40
2020,02,22,16,19,4.80
2020,02,22,16,20,9.60
2020,02,22,16,21,11.30
2020,02,22,16,22,11.30
2020,02,22,16,23,6.40
2020,02,22,16,24,3.20
2020,02,22,16,25,3.20
2020,02,22,16,26,3.20
2020,02,22,16,27,3.20
2020,02,22,16,28,6.40
2020,02,22,16,29,6.40
2020,02,22,16,30,3.20
2020,02,22,16,31,3.20
2020,02,22,16,32,1.60
2020,02,22,16,33,6.40
2020,02,22,16,34,4.80
2020,02,22,16,35,3.20
2020,02,22,16,36,4.80
2020,02,22,16,37,6.40
2020,02,22,16,38,6.40
2020,02,22,16,39,9.60
2020,02,22,16,40,8.10
2020,02,22,16,41,6.40
2020,02,22,16,42,6.40
2020,02,22,16,43,6.40
2020,02,22,16,44,8.10
2020,02,22,16,45,9.60
2020,02,22,16,46,6.40
2020,02,22,16,47,6.40
2020,02,22,16,48,6.40
2020,02,22,16,49,6.40
2020,02,22,16,50,4.80
2020,02,22,16,51,3.20
2020,02,22,16,52,4.80
2020,02,22,16,53,4.80
2020,02,22,16,54,1.60
2020,02,22,16,55,3.20
2020,02,22,16,56,6.40
2020,02,22,16,57,8.10
2020,02,22,16,58,6.40
2020,02,22,16,59,3.20
2020,02,22,17,00,3.20
2020,02,22,17,01,6.40
2020,02,22,17,02,3.20
2020,02,22,17,03,6.40
2020,02,22,17,04,4.80
2020,02,22,17,05,6.40
2020,02,22,17,06,6.40
2020,02,22,17,07,6.40
2020,02,22,17,08,3.20
2020,02,22,17,09,8.10
2020,02,22,17,10,6.40
2020,02,22,17,11,6.40
2020,02,22,17,12,6.40
2020,02,22,17,13,3.20
2020,02,22,17,14,3.20
2020,02,22,17,15,4.80
2020,02,22,17,16,4.80
2020,02,22,17,17,6.40
2020,02,22,17,18,6.40
2020,02,22,17,19,4.80
2020,02,22,17,20,3.20
2020,02,22,17,21,4.80
2020,02,22,17,22,8.10
2020,02,22,17,23,3.20
2020,02,22,17,24,3.20
2020,02,22,17,25,3.20
2020,02,22,17,26,4.80
2020,02,22,17,27,3.20
2020,02,22,17,28,4.80
2020,02,22,17,29,4.80
2020,02,22,17,30,4.80
2020,02,22,17,31,3.20
2020,02,22,17,32,4.80
2020,02,22,17,33,4.80
2020,02,22,17,34,4.80
2020,02,22,17,35,6.40
2020,02,22,17,36,3.20
2020,02,22,17,37,3.20
2020,02,22,17,38,3.20
2020,02,22,17,39,6.40
2020,02,22,17,40,6.40
2020,02,22,17,41,4.80
2020,02,22,17,42,8.10
2020,02,22,17,43,6.40
2020,02,22,17,44,6.40
2020,02,22,17,45,6.40
2020,02,22,17,46,8.10
2020,02,22,17,47,4.80
2020,02,22,17,48,6.40
2020,02,22,17,49,3.20
2020,02,22,17,50,3.20
2020,02,22,17,51,3.20
2020,02,22,17,52,4.80
2020,02,22,17,53,3.20
2020,02,22,17,54,6.40
2020,02,22,17,55,3.20
2020,02,22,17,56,4.80
2020,02,22,17,57,3.20
2020,02,22,17,58,3.20
2020,02,22,17,59,3.20
2020,02,22,18,00,3.20
2020,02,22,18,01,3.20
2020,02,22,18,02,3.20
2020,02,22,18,03,3.20
2020,02,22,18,04,3.20
2020,02,22,18,05,3.20
2020,02,22,18,06,3.20
2020,02,22,18,07,3.20
2020,02,22,18,08,3.20
2020,02,22,18,09,3.20
2020,02,22,18,10,1.60
2020,02,22,18,11,3.20
2020,02,22,18,12,3.20
2020,02,22,18,13,3.20
2020,02,22,18,14,3.20
2020,02,22,18,15,3.20
2020,02,22,18,16,3.20
2020,02,22,18,17,3.20
2020,02,22,18,18,3.20
2020,02,22,18,19,3.20
2020,02,22,18,20,3.20
2020,02,22,18,21,3.20
2020,02,22,18,22,3.20
2020,02,22,18,23,1.60
2020,02,22,18,24,1.60
2020,02,22,18,25,4.80
2020,02,22,18,26,3.20
2020,02,22,18,27,3.20
2020,02,22,18,28,1.60
2020,02,22,18,29,1.60
2020,02,22,18,30,1.60
2020,02,22,18,31,3.20
2020,02,22,18,32,1.60
2020,02,22,18,33,1.60
2020,02,22,18,34,1.60
2020,02,22,18,35,1.60
2020,02,22,18,37,1.60
2020,02,22,18,38,1.60
2020,02,22,18,39,1.60
2020,02,22,18,40,1.60
2020,02,22,18,41,1.60
2020,02,22,18,42,1.60
2020,02,22,18,43,1.60
2020,02,22,18,44,3.20
2020,02,22,18,45,3.20
2020,02,22,18,46,3.20
2020,02,22,18,47,1.60
2020,02,22,18,48,1.60
2020,02,22,18,49,1.60
2020,02,22,18,51,1.60
2020,02,22,18,52,3.20
2020,02,22,18,53,1.60
2020,02,22,19,07,1.60
2020,02,22,19,08,1.60
2020,02,22,19,15,3.20
2020,02,22,19,16,3.20
2020,02,22,19,17,1.60
2020,02,22,19,18,1.60
2020,02,22,19,19,1.60
2020,02,22,19,20,3.20
2020,02,22,19,21,3.20
2020,02,22,19,22,1.60
2020,02,22,19,23,1.60
2020,02,22,19,24,1.60
2020,02,22,19,25,1.60
2020,02,22,19,27,3.20
2020,02,22,19,30,1.60
2020,02,22,19,31,1.60
2020,02,22,19,35,1.60
2020,02,22,19,36,1.60
2020,02,22,19,37,1.60
2020,02,22,19,38,1.60
2020,02,22,19,39,1.60
2020,02,22,19,40,1.60
2020,02,22,19,41,1.60
2020,02,22,19,42,3.20
2020,02,22,19,43,3.20
2020,02,22,19,44,3.20
2020,02,22,19,45,1.60
2020,02,22,19,46,1.60
2020,02,22,19,47,3.20